,,Stat5,,Stat1,,Stat2,,Stat3,,Stat4,,Wind1,,Wind1,
time,status,PA1M_AVG,status,PR1M_SUM,status,RH1M_AVG,status,SR1M_AVG,status,TA1M_AVG,status,W1dAve1m,status,W1sAve1m,
2002-08-26, 09:10:00,VALID,919.586,VALID,0,VALID,79.3237,VALID,550.729,VALID,23.6464,VALID,36,VALID,0.890825,
2002-08-26, 09:11:00,VALID,919.559,VALID,0,VALID,79.2171,VALID,570.047,VALID,23.8222,VALID,310,VALID,0.310697,
2002-08-26, 09:12:00,VALID,919.563,VALID,0,VALID,78.5483,VALID,582.646,VALID,23.8968,VALID,276,VALID,0.829127,
2002-08-26, 09:13:00,VALID,919.575,VALID,0,VALID,78.678,VALID,581.848,VALID,23.8742,VALID,260,VALID,0.528372,
2002-08-26, 09:14:00,VALID,919.58,VALID,0,VALID,78.9641,VALID,570.76,VALID,23.8704,VALID,277,VALID,0.620046,
2002-08-26, 09:15:00,VALID,919.576,VALID,0,VALID,79.2311,VALID,548.379,VALID,23.8615,VALID,274,VALID,0.714343,
2002-08-26, 09:16:00,VALID,919.58,VALID,0,VALID,78.5241,VALID,516.829,VALID,23.9041,VALID,258,VALID,0.297081,
2002-08-26, 09:17:00,VALID,919.577,VALID,0,VALID,79.5656,VALID,588.352,VALID,24.0172,VALID,341,VALID,0.684245,
2002-08-26, 09:18:00,VALID,919.579,VALID,0,VALID,77.1572,VALID,597.555,VALID,24.2038,VALID,38,VALID,0.356702,
2002-08-26, 09:19:00,VALID,919.563,VALID,0,VALID,77.592,VALID,589.456,VALID,24.3435,VALID,320,VALID,0.415848,
2002-08-26, 09:20:00,VALID,919.547,VALID,0,VALID,78.72,VALID,585.465,VALID,24.4204,VALID,3,VALID,0.729421,
2002-08-26, 09:21:00,VALID,919.541,VALID,0,VALID,78.2558,VALID,525.013,VALID,24.5721,VALID,346,VALID,0.358742,
2002-08-26, 09:22:00,VALID,919.531,VALID,0,VALID,75.471,VALID,507.557,VALID,24.7234,VALID,246,VALID,0.717722,
2002-08-26, 09:23:00,VALID,919.511,VALID,0,VALID,74.8136,VALID,580.965,VALID,24.5303,VALID,290,VALID,0.681166,
2002-08-26, 09:24:00,VALID,919.495,VALID,0,VALID,76.6816,VALID,594.618,VALID,24.5521,VALID,347,VALID,0.600391,
2002-08-26, 09:25:00,VALID,919.477,VALID,0,VALID,76.8151,VALID,554.102,VALID,24.7576,VALID,11,VALID,0.810444,
2002-08-26, 09:26:00,VALID,919.466,VALID,0,VALID,77.0135,VALID,534.149,VALID,24.884,VALID,353,VALID,0.826389,
2002-08-26, 09:27:00,VALID,919.448,VALID,0,VALID,75.5473,VALID,550.654,VALID,24.9028,VALID,334,VALID,0.353041,
2002-08-26, 09:28:00,VALID,919.443,VALID,0,VALID,75.1111,VALID,572.645,VALID,25.0095,VALID,296,VALID,0.221917,
2002-08-26, 09:29:00,VALID,919.443,VALID,0,VALID,74.6928,VALID,573.392,VALID,25.1712,VALID,320,VALID,0.512153,
2002-08-26, 09:30:00,VALID,919.447,VALID,0,VALID,73.0003,VALID,531.279,VALID,25.1288,VALID,306,VALID,0.531436,
2002-08-26, 09:31:00,VALID,919.433,VALID,0,VALID,73.6844,VALID,476.159,VALID,24.8944,VALID,18,VALID,1.86402,
2002-08-26, 09:32:00,VALID,919.406,VALID,0,VALID,75.3184,VALID,502.785,VALID,24.8792,VALID,22,VALID,2.14864,
2002-08-26, 09:33:00,VALID,919.398,VALID,0,VALID,72.9863,VALID,546.647,VALID,24.8113,VALID,358,VALID,1.26563,
2002-08-26, 09:34:00,VALID,919.39,VALID,0,VALID,73.3029,VALID,616.149,VALID,24.6687,VALID,23,VALID,0.480664,
2002-08-26, 09:35:00,VALID,919.375,VALID,0,VALID,74.1358,VALID,653.728,VALID,24.7587,VALID,356,VALID,0.437706,
2002-08-26, 09:36:00,VALID,919.361,VALID,0,VALID,73.8624,VALID,658.347,VALID,24.8301,VALID,25,VALID,0.529194,
2002-08-26, 09:37:00,VALID,919.337,VALID,0,VALID,72.5705,VALID,659.671,VALID,24.9753,VALID,230,VALID,0.561022,
2002-08-26, 09:38:00,VALID,919.302,VALID,0,VALID,71.4947,VALID,628.257,VALID,24.7654,VALID,261,VALID,0.645833,
2002-08-26, 09:39:00,VALID,919.29,VALID,0,VALID,71.9957,VALID,636.662,VALID,24.8098,VALID,251,VALID,0.359598,
2002-08-26, 09:40:00,VALID,919.289,VALID,0,VALID,72.5209,VALID,655.12,VALID,25.0758,VALID,211,VALID,0.336719,
2002-08-26, 09:41:00,VALID,919.27,VALID,0,VALID,72.1737,VALID,665.886,VALID,25.2304,VALID,275,VALID,0.929487,
2002-08-26, 09:42:00,VALID,919.257,VALID,0,VALID,71.9728,VALID,584.124,VALID,25.037,VALID,288,VALID,0.980674,
2002-08-26, 09:43:00,VALID,919.236,VALID,0,VALID,70.9861,VALID,583.105,VALID,24.9711,VALID,269,VALID,0.687089,
2002-08-26, 09:44:00,VALID,919.217,VALID,0,VALID,71.2671,VALID,575.243,VALID,24.7457,VALID,260,VALID,0.879383,
2002-08-26, 09:45:00,VALID,919.202,VALID,0,VALID,72.6595,VALID,542.266,VALID,24.6801,VALID,242,VALID,0.311678,
2002-08-26, 09:46:00,VALID,919.184,VALID,0,VALID,71.4502,VALID,608.253,VALID,24.7736,VALID,251,VALID,0.516447,
2002-08-26, 09:47:00,VALID,919.173,VALID,0,VALID,71.805,VALID,634.251,VALID,24.9,VALID,243,VALID,0.0735677,
2002-08-26, 09:48:00,VALID,919.176,VALID,0,VALID,72.5209,VALID,624.929,VALID,25.0455,VALID,243,VALID,0.764992,
2002-08-26, 09:49:00,VALID,919.17,VALID,0,VALID,71.6511,VALID,574.971,VALID,24.9358,VALID,254,VALID,0.628571,
2002-08-26, 09:50:00,VALID,919.165,VALID,0,VALID,72.8871,VALID,573.986,VALID,24.9223,VALID,261,VALID,0.570518,
2002-08-26, 09:51:00,VALID,919.165,VALID,0,VALID,73.2317,VALID,550.026,VALID,25.0678,VALID,6,VALID,0.346073,
2002-08-26, 09:52:00,VALID,919.162,VALID,0,VALID,71.4375,VALID,517.253,VALID,25.2547,VALID,337,VALID,0.768298,
2002-08-26, 09:53:00,VALID,919.156,VALID,0,VALID,73.0181,VALID,595.467,VALID,25.3323,VALID,29,VALID,0.84734,
2002-08-26, 09:54:00,VALID,919.155,VALID,0,VALID,72.2373,VALID,631.076,VALID,25.5395,VALID,20,VALID,1.9377,
2002-08-26, 09:55:00,VALID,919.151,VALID,0,VALID,70.176,VALID,681.814,VALID,25.6146,VALID,22,VALID,1.58717,
2002-08-26, 09:56:00,VALID,919.128,VALID,0,VALID,70.4329,VALID,703.737,VALID,25.653,VALID,348,VALID,0.884332,
2002-08-26, 09:57:00,VALID,919.126,VALID,0,VALID,69.0329,VALID,733.504,VALID,25.4778,VALID,275,VALID,0.825802,
2002-08-26, 09:58:00,VALID,919.119,VALID,0,VALID,69.7081,VALID,757.141,VALID,25.2999,VALID,250,VALID,0.473818,
2002-08-26, 09:59:00,VALID,919.105,VALID,0,VALID,71.6231,VALID,772.237,VALID,25.3029,VALID,344,VALID,0.594618,
2002-08-26, 10:00:00,VALID,919.083,VALID,0,VALID,72.4548,VALID,776.092,VALID,25.5935,VALID,8,VALID,0.309896,
2002-08-26, 10:01:00,VALID,919.084,VALID,0,VALID,70.5397,VALID,778.945,VALID,25.9522,VALID,4,VALID,0.961993,
2002-08-26, 10:02:00,VALID,919.068,VALID,0,VALID,70.6389,VALID,785.89,VALID,26.0883,VALID,20,VALID,1.16674,
2002-08-26, 10:03:00,VALID,919.061,VALID,0,VALID,70.6554,VALID,784.582,VALID,26.3011,VALID,23,VALID,1.77734,
2002-08-26, 10:04:00,VALID,919.058,VALID,0,VALID,69.7488,VALID,785.584,VALID,26.6058,VALID,73,VALID,0.335547,
2002-08-26, 10:05:00,VALID,919.031,VALID,0,VALID,68.4759,VALID,787.605,VALID,26.9328,VALID,339,VALID,0.811061,
2002-08-26, 10:06:00,VALID,919.024,VALID,0,VALID,65.8551,VALID,793.192,VALID,26.9157,VALID,302,VALID,0.968956,
2002-08-26, 10:07:00,VALID,919.016,VALID,0,VALID,67.3861,VALID,792.563,VALID,26.6084,VALID,19,VALID,1.14611,
2002-08-26, 10:08:00,VALID,918.989,VALID,0,VALID,68.0499,VALID,800.357,VALID,26.7561,VALID,33,VALID,0.866319,
2002-08-26, 10:09:00,VALID,918.98,VALID,0,VALID,68.7417,VALID,801.716,VALID,26.9696,VALID,6,VALID,1.19821,
2002-08-26, 10:10:00,VALID,918.986,VALID,0,VALID,65.8361,VALID,811.48,VALID,27.1378,VALID,332,VALID,0.764844,
2002-08-26, 10:11:00,VALID,919.007,VALID,0,VALID,66.3587,VALID,832.044,VALID,27.1194,VALID,313,VALID,0.265425,
2002-08-26, 10:12:00,VALID,919.018,VALID,0,VALID,64.0342,VALID,851.758,VALID,27.145,VALID,248,VALID,1.12253,
2002-08-26, 10:13:00,VALID,919.023,VALID,0,VALID,64.8404,VALID,847.276,VALID,26.782,VALID,309,VALID,1.02632,
2002-08-26, 10:14:00,VALID,919.048,VALID,0,VALID,64.9472,VALID,858.907,VALID,26.3357,VALID,306,VALID,0.86452,
2002-08-26, 10:15:00,VALID,919.034,VALID,0,VALID,67.4052,VALID,863.526,VALID,26.2804,VALID,311,VALID,0.58162,
2002-08-26, 10:16:00,VALID,919.039,VALID,0,VALID,65.8755,VALID,878.588,VALID,26.2545,VALID,296,VALID,1.05572,
2002-08-26, 10:17:00,VALID,919.035,VALID,0,VALID,68.3208,VALID,882.154,VALID,26.1057,VALID,4,VALID,1.57769,
2002-08-26, 10:18:00,VALID,919.031,VALID,0,VALID,68.5586,VALID,915.216,VALID,26.4521,VALID,24,VALID,1.62711,
2002-08-26, 10:19:00,VALID,919.028,VALID,0,VALID,65.5563,VALID,933.708,VALID,26.7526,VALID,346,VALID,0.96183,
2002-08-26, 10:20:00,VALID,919.026,VALID,0,VALID,64.6268,VALID,959.417,VALID,26.5996,VALID,251,VALID,0.758224,
2002-08-26, 10:21:00,VALID,919.02,VALID,0,VALID,65.6415,VALID,889.286,VALID,26.5417,VALID,270,VALID,0.731841,
2002-08-26, 10:22:00,VALID,919.03,VALID,0,VALID,64.6636,VALID,851.792,VALID,26.4828,VALID,228,VALID,0.417146,
2002-08-26, 10:23:00,VALID,919.015,VALID,0,VALID,66.6868,VALID,977.518,VALID,26.6836,VALID,255,VALID,0.566512,
2002-08-26, 10:24:00,VALID,919.021,VALID,0,VALID,66.4375,VALID,665.852,VALID,26.7868,VALID,299,VALID,0.746875,
2002-08-26, 10:25:00,VALID,919.02,VALID,0,VALID,65.4826,VALID,353.252,VALID,26.6179,VALID,277,VALID,0.666118,
2002-08-26, 10:26:00,VALID,919.033,VALID,0,VALID,66.6168,VALID,551.979,VALID,26.5112,VALID,261,VALID,0.375434,
2002-08-26, 10:27:00,VALID,919.046,VALID,0,VALID,67.0314,VALID,918.137,VALID,26.7017,VALID,213,VALID,0.241765,
2002-08-26, 10:28:00,VALID,919.051,VALID,0,VALID,66.1896,VALID,893.362,VALID,26.9381,VALID,197,VALID,0.639147,
2002-08-26, 10:29:00,VALID,919.048,VALID,0,VALID,66.6651,VALID,798.744,VALID,26.8505,VALID,262,VALID,1.10807,
2002-08-26, 10:30:00,VALID,919.031,VALID,0,VALID,68.2992,VALID,838.072,VALID,26.7017,VALID,329,VALID,0.7859,
2002-08-26, 10:31:00,VALID,919.041,VALID,0,VALID,67.7587,VALID,776.211,VALID,26.7117,VALID,270,VALID,0.938767,
2002-08-26, 10:32:00,VALID,919.025,VALID,0,VALID,67.1916,VALID,573.154,VALID,26.3456,VALID,243,VALID,1.65461,
2002-08-26, 10:33:00,VALID,919.034,VALID,0,VALID,68.4123,VALID,789.812,VALID,26,VALID,232,VALID,0.914474,
2002-08-26, 10:34:00,VALID,918.988,VALID,0,VALID,70.6249,VALID,816.846,VALID,26.02,VALID,293,VALID,0.516211,
2002-08-26, 10:35:00,VALID,918.982,VALID,0,VALID,68.5751,VALID,831.059,VALID,25.9958,VALID,273,VALID,0.995066,
2002-08-26, 10:36:00,VALID,918.953,VALID,0,VALID,70.0845,VALID,603.872,VALID,26.1148,VALID,22,VALID,1.46854,
2002-08-26, 10:37:00,VALID,918.935,VALID,0,VALID,69.5097,VALID,895.807,VALID,26.2215,VALID,10,VALID,2.16596,
2002-08-26, 10:38:00,VALID,918.928,VALID,0,VALID,70.9771,VALID,916.404,VALID,26.1985,VALID,19,VALID,2.46224,
2002-08-26, 10:39:00,VALID,918.936,VALID,0,VALID,69.1295,VALID,932.655,VALID,26.3211,VALID,8,VALID,1.22634,
2002-08-26, 10:40:00,VALID,918.935,VALID,0,VALID,71.6117,VALID,942.572,VALID,26.4249,VALID,347,VALID,1.16094,
2002-08-26, 10:41:00,VALID,918.947,VALID,0,VALID,69.6649,VALID,952.913,VALID,26.7551,VALID,10,VALID,0.950521,
2002-08-26, 10:42:00,VALID,918.941,VALID,0,VALID,68.6641,VALID,968.502,VALID,26.9715,VALID,319,VALID,0.869449,
2002-08-26, 10:43:00,VALID,918.942,VALID,0,VALID,66.4998,VALID,993.48,VALID,27.1782,VALID,145,VALID,0.678865,
2002-08-26, 10:44:00,VALID,918.922,VALID,0,VALID,65.5334,VALID,1022.59,VALID,27.3302,VALID,202,VALID,0.736471,
2002-08-26, 10:45:00,VALID,918.916,VALID,0,VALID,66.0751,VALID,1001.61,VALID,27.58,VALID,1,VALID,0.631785,
2002-08-26, 10:46:00,VALID,918.889,VALID,0,VALID,64.9561,VALID,488.793,VALID,27.7738,VALID,332,VALID,1.06661,
2002-08-26, 10:47:00,VALID,918.901,VALID,0,VALID,65.2905,VALID,670.284,VALID,27.4625,VALID,5,VALID,0.888455,
2002-08-26, 10:48:00,VALID,918.893,VALID,0,VALID,65.8831,VALID,337.868,VALID,27.3716,VALID,355,VALID,0.734375,
2002-08-26, 10:49:00,VALID,918.913,VALID,0,VALID,66.6906,VALID,348.226,VALID,27.3173,VALID,20,VALID,0.939509,
2002-08-26, 10:50:00,VALID,918.928,VALID,0,VALID,66.1985,VALID,328.206,VALID,27.185,VALID,313,VALID,0.548725,
2002-08-26, 10:51:00,VALID,918.934,VALID,0,VALID,67.9011,VALID,309.323,VALID,26.9424,VALID,352,VALID,1.09628,
2002-08-26, 10:52:00,VALID,918.95,VALID,0,VALID,68.6387,VALID,264.527,VALID,26.8259,VALID,313,VALID,0.816201,
2002-08-26, 10:53:00,VALID,918.934,VALID,0,VALID,66.9017,VALID,245.22,VALID,26.7315,VALID,255,VALID,0.403083,
2002-08-26, 10:54:00,VALID,918.947,VALID,0,VALID,67.4904,VALID,254.678,VALID,26.5737,VALID,205,VALID,0.608008,
2002-08-26, 10:55:00,VALID,918.941,VALID,0,VALID,68.8714,VALID,421.634,VALID,26.4378,VALID,333,VALID,0.598273,
2002-08-26, 10:56:00,VALID,918.928,VALID,0,VALID,68.6298,VALID,678.418,VALID,26.2503,VALID,253,VALID,0.672092,
2002-08-26, 10:57:00,VALID,918.931,VALID,0,VALID,68.6565,VALID,361.59,VALID,26.1277,VALID,253,VALID,0.568834,
2002-08-26, 10:58:00,VALID,918.935,VALID,0,VALID,68.2915,VALID,354.475,VALID,26.0433,VALID,224,VALID,0.701647,
2002-08-26, 10:59:00,VALID,918.929,VALID,0,VALID,69.146,VALID,323.655,VALID,25.9951,VALID,279,VALID,0.575087,
2002-08-26, 11:00:00,VALID,918.924,VALID,0,VALID,69.7373,VALID,302.174,VALID,25.9237,VALID,249,VALID,0.360677,
2002-08-26, 11:01:00,VALID,918.924,VALID,0,VALID,69.5644,VALID,304.568,VALID,25.8331,VALID,293,VALID,0.626478,
2002-08-26, 11:02:00,VALID,918.928,VALID,0,VALID,68.659,VALID,364.375,VALID,25.7433,VALID,228,VALID,0.544202,
2002-08-26, 11:03:00,VALID,918.896,VALID,0,VALID,68.8103,VALID,400.136,VALID,25.7688,VALID,58,VALID,0.761102,
2002-08-26, 11:04:00,VALID,918.903,VALID,0,VALID,70.2816,VALID,640.466,VALID,25.7494,VALID,273,VALID,0.678125,
2002-08-26, 11:05:00,VALID,918.883,VALID,0,VALID,69.1829,VALID,1002.51,VALID,25.828,VALID,29,VALID,1.21546,
2002-08-26, 11:06:00,VALID,918.875,VALID,0,VALID,68.9222,VALID,1000.43,VALID,26.0608,VALID,13,VALID,1.70621,
2002-08-26, 11:07:00,VALID,918.864,VALID,0,VALID,69.1562,VALID,974.173,VALID,26.3709,VALID,16,VALID,1.64168,
2002-08-26, 11:08:00,VALID,918.88,VALID,0,VALID,64.745,VALID,999.203,VALID,26.7293,VALID,291,VALID,0.405165,
2002-08-26, 11:09:00,VALID,918.873,VALID,0,VALID,65.3706,VALID,924.521,VALID,27.0973,VALID,175,VALID,0.29442,
2002-08-26, 11:10:00,VALID,918.877,VALID,0,VALID,61.7746,VALID,327.306,VALID,27.4308,VALID,27,VALID,1.14141,
2002-08-26, 11:11:00,VALID,918.859,VALID,0,VALID,63.8524,VALID,438.649,VALID,27.3758,VALID,233,VALID,0.406851,
2002-08-26, 11:12:00,VALID,918.866,VALID,0,VALID,64.2898,VALID,527.832,VALID,27.3493,VALID,310,VALID,0.556332,
2002-08-26, 11:13:00,VALID,918.847,VALID,0,VALID,64.155,VALID,891.494,VALID,27.4599,VALID,27,VALID,0.853824,
2002-08-26, 11:14:00,VALID,918.839,VALID,0,VALID,63.9464,VALID,858.024,VALID,27.5858,VALID,21,VALID,1.27268,
2002-08-26, 11:15:00,VALID,918.829,VALID,0,VALID,63.3933,VALID,846.189,VALID,27.6925,VALID,320,VALID,0.450247,
2002-08-26, 11:16:00,VALID,918.83,VALID,0,VALID,60.742,VALID,745.594,VALID,27.7896,VALID,238,VALID,0.694079,
2002-08-26, 11:17:00,VALID,918.815,VALID,0,VALID,59.2402,VALID,642.623,VALID,27.699,VALID,175,VALID,0.497179,
2002-08-26, 11:18:00,VALID,918.777,VALID,0,VALID,58.8079,VALID,686.127,VALID,27.5437,VALID,244,VALID,0.581715,
2002-08-26, 11:19:00,VALID,918.747,VALID,0,VALID,60.9442,VALID,640.092,VALID,27.3855,VALID,352,VALID,0.700893,
2002-08-26, 11:20:00,VALID,918.708,VALID,0,VALID,62.7244,VALID,604.806,VALID,27.4697,VALID,50,VALID,0.752262,
2002-08-26, 11:21:00,VALID,918.658,VALID,0,VALID,63.6909,VALID,594.397,VALID,27.3557,VALID,340,VALID,0.778083,
2002-08-26, 11:22:00,VALID,918.646,VALID,0,VALID,64.7081,VALID,648.464,VALID,27.2069,VALID,345,VALID,1.07525,
2002-08-26, 11:23:00,VALID,918.622,VALID,0,VALID,66.0497,VALID,554.441,VALID,27.0898,VALID,14,VALID,1.34544,
2002-08-26, 11:24:00,VALID,918.604,VALID,0,VALID,64.9116,VALID,638.479,VALID,27.1921,VALID,304,VALID,0.657031,
2002-08-26, 11:25:00,VALID,918.599,VALID,0,VALID,64.1575,VALID,590.254,VALID,27.2241,VALID,196,VALID,0.307566,
2002-08-26, 11:26:00,VALID,918.602,VALID,0,VALID,64.0418,VALID,567.228,VALID,27.3855,VALID,105,VALID,0.375651,
2002-08-26, 11:27:00,VALID,918.591,VALID,0,VALID,63.083,VALID,446.613,VALID,27.557,VALID,18,VALID,0.906461,
2002-08-26, 11:28:00,VALID,918.562,VALID,0,VALID,62.5401,VALID,514.791,VALID,27.5652,VALID,355,VALID,1.15034,
2002-08-26, 11:29:00,VALID,918.525,VALID,0,VALID,64.197,VALID,632.247,VALID,27.4732,VALID,30,VALID,1.99479,
2002-08-26, 11:30:00,VALID,918.494,VALID,0,VALID,65.2537,VALID,682.273,VALID,27.535,VALID,16,VALID,0.983259,
2002-08-26, 11:31:00,VALID,918.494,VALID,0,VALID,62.8465,VALID,633.911,VALID,27.6195,VALID,244,VALID,0.619932,
2002-08-26, 11:32:00,VALID,918.515,VALID,0,VALID,61.416,VALID,587.859,VALID,27.3733,VALID,224,VALID,0.819901,
2002-08-26, 11:33:00,VALID,918.53,VALID,0,VALID,61.4973,VALID,654.322,VALID,27.1339,VALID,248,VALID,1.05983,
2002-08-26, 11:34:00,VALID,918.535,VALID,0,VALID,63.8053,VALID,597.012,VALID,26.9366,VALID,3,VALID,1.5084,
2002-08-26, 11:35:00,VALID,918.545,VALID,0,VALID,65.2537,VALID,439.549,VALID,26.8726,VALID,16,VALID,1.54317,
2002-08-26, 11:36:00,VALID,918.547,VALID,0,VALID,65.9505,VALID,433.028,VALID,26.8493,VALID,359,VALID,0.787418,
2002-08-26, 11:37:00,VALID,918.535,VALID,0,VALID,64.7005,VALID,640.228,VALID,26.9107,VALID,19,VALID,0.901605,
2002-08-26, 11:38:00,VALID,918.498,VALID,0,VALID,64.436,VALID,769.249,VALID,26.8751,VALID,354,VALID,1.12956,
2002-08-26, 11:39:00,VALID,918.476,VALID,0,VALID,66.1311,VALID,795.467,VALID,26.9143,VALID,26,VALID,1.72143,
2002-08-26, 11:40:00,VALID,918.451,VALID,0,VALID,65.8526,VALID,756.547,VALID,27.1763,VALID,26,VALID,0.836523,
2002-08-26, 11:41:00,VALID,918.455,VALID,0,VALID,65.0934,VALID,792.648,VALID,27.3409,VALID,342,VALID,0.489583,
2002-08-26, 11:42:00,VALID,918.481,VALID,0,VALID,64.6191,VALID,865.173,VALID,27.6102,VALID,324,VALID,0.574219,
2002-08-26, 11:43:00,VALID,918.506,VALID,0,VALID,62.2578,VALID,879.471,VALID,27.6429,VALID,239,VALID,0.947985,
2002-08-26, 11:44:00,VALID,918.522,VALID,0,VALID,61.154,VALID,935.695,VALID,27.5587,VALID,208,VALID,1.3649,
2002-08-26, 11:45:00,VALID,918.511,VALID,0,VALID,61.1515,VALID,931.619,VALID,27.4966,VALID,232,VALID,1.12891,
2002-08-26, 11:46:00,VALID,918.478,VALID,0,VALID,61.7822,VALID,945.951,VALID,27.3582,VALID,210,VALID,1.11883,
2002-08-26, 11:47:00,VALID,918.449,VALID,0,VALID,62.2705,VALID,961.573,VALID,27.209,VALID,230,VALID,1.7513,
2002-08-26, 11:48:00,VALID,918.436,VALID,0,VALID,63.8943,VALID,969.979,VALID,27.0929,VALID,233,VALID,1.0038,
2002-08-26, 11:49:00,VALID,918.433,VALID,0,VALID,65.0705,VALID,987.724,VALID,27.2892,VALID,183,VALID,0.543527,
2002-08-26, 11:50:00,VALID,918.411,VALID,0,VALID,66.2722,VALID,983.36,VALID,27.6713,VALID,28,VALID,1.2278,
2002-08-26, 11:51:00,VALID,918.435,VALID,0,VALID,64.0762,VALID,981.492,VALID,28.0175,VALID,11,VALID,1.90667,
2002-08-26, 11:52:00,VALID,918.426,VALID,0,VALID,59.3216,VALID,937.648,VALID,28.0991,VALID,21,VALID,2.42331,
2002-08-26, 11:53:00,VALID,918.429,VALID,0,VALID,60.742,VALID,990.033,VALID,28.1886,VALID,26,VALID,1.82116,
2002-08-26, 11:54:00,VALID,918.431,VALID,0,VALID,61.1387,VALID,933.776,VALID,28.3339,VALID,20,VALID,2.55039,
2002-08-26, 11:55:00,VALID,918.404,VALID,0,VALID,60.063,VALID,870.692,VALID,28.5151,VALID,27,VALID,1.63672,
2002-08-26, 11:56:00,VALID,918.396,VALID,0,VALID,60.7344,VALID,685.533,VALID,28.6988,VALID,4,VALID,1.07878,
2002-08-26, 11:57:00,VALID,918.372,VALID,0,VALID,61.4528,VALID,360.265,VALID,28.7973,VALID,23,VALID,0.988809,
2002-08-26, 11:58:00,VALID,918.376,VALID,0,VALID,58.1174,VALID,332.4,VALID,28.7369,VALID,6,VALID,1.21389,
2002-08-26, 11:59:00,VALID,918.367,VALID,0,VALID,59.0215,VALID,428.392,VALID,28.3446,VALID,17,VALID,1.27257,
2002-08-26, 12:00:01,VALID,918.346,VALID,0,VALID,60.1622,VALID,544.134,VALID,28.1458,VALID,291,VALID,0.678943,
2002-08-26, 12:01:00,VALID,918.357,VALID,0,VALID,59.6421,VALID,623.995,VALID,27.988,VALID,211,VALID,0.381968,
2002-08-26, 12:02:00,VALID,918.367,VALID,0,VALID,61.7428,VALID,727.51,VALID,27.878,VALID,266,VALID,0.636719,
2002-08-26, 12:03:00,VALID,918.361,VALID,0,VALID,60.0274,VALID,716.676,VALID,27.6709,VALID,283,VALID,1.33655,
2002-08-26, 12:04:00,VALID,918.354,VALID,0,VALID,61.9335,VALID,672.916,VALID,27.1669,VALID,332,VALID,1.75137,
2002-08-26, 12:05:00,VALID,918.323,VALID,0,VALID,61.6067,VALID,672.713,VALID,27.0052,VALID,347,VALID,0.872122,
2002-08-26, 12:06:00,VALID,918.279,VALID,0,VALID,61.257,VALID,667.092,VALID,26.956,VALID,262,VALID,0.861225,
2002-08-26, 12:07:00,VALID,918.244,VALID,0,VALID,62.343,VALID,672.288,VALID,26.8661,VALID,232,VALID,0.736909,
2002-08-26, 12:08:00,VALID,918.21,VALID,0,VALID,63.2738,VALID,594.618,VALID,27.0275,VALID,215,VALID,0.90408,
2002-08-26, 12:09:00,VALID,918.187,VALID,0,VALID,64.2796,VALID,521.804,VALID,27.2471,VALID,16,VALID,0.961607,
2002-08-26, 12:10:00,VALID,918.184,VALID,0,VALID,64.1168,VALID,282.867,VALID,27.4043,VALID,330,VALID,0.537695,
2002-08-26, 12:11:00,VALID,918.195,VALID,0,VALID,63.3526,VALID,220.326,VALID,27.4894,VALID,243,VALID,0.183293,
2002-08-26, 12:12:01,VALID,918.21,VALID,0,VALID,64.1296,VALID,191.34,VALID,27.5441,VALID,280,VALID,0.505757,
2002-08-26, 12:13:00,VALID,918.207,VALID,0,VALID,63.9859,VALID,168.484,VALID,27.4502,VALID,314,VALID,0.728824,
2002-08-26, 12:14:01,VALID,918.209,VALID,0,VALID,63.4632,VALID,149.516,VALID,27.2393,VALID,260,VALID,0.519817,
2002-08-26, 12:15:01,VALID,918.189,VALID,0,VALID,64.9866,VALID,136.594,VALID,27.0452,VALID,139,VALID,0.485814,
2002-08-26, 12:16:00,VALID,918.192,VALID,0,VALID,65.1176,VALID,132.807,VALID,26.8586,VALID,225,VALID,0.881373,
2002-08-26, 12:17:01,VALID,918.16,VALID,0,VALID,65.3681,VALID,134.692,VALID,26.4317,VALID,239,VALID,0.949002,
2002-08-26, 12:18:00,VALID,918.133,VALID,0,VALID,69.2122,VALID,141.297,VALID,26.2538,VALID,354,VALID,0.644426,
2002-08-26, 12:19:00,VALID,918.081,VALID,0,VALID,67.7702,VALID,152.658,VALID,26.2047,VALID,241,VALID,0.783259,
2002-08-26, 12:20:01,VALID,918.055,VALID,0,VALID,70.1786,VALID,170.386,VALID,26.0213,VALID,360,VALID,0.538857,
2002-08-26, 12:21:00,VALID,918.053,VALID,0,VALID,69.3826,VALID,196.214,VALID,25.998,VALID,240,VALID,0.285684,
2002-08-26, 12:22:01,VALID,918.028,VALID,0,VALID,70.2091,VALID,218.492,VALID,25.9786,VALID,231,VALID,0.35259,
2002-08-26, 12:23:00,VALID,918.017,VALID,0,VALID,70.6554,VALID,246.528,VALID,25.924,VALID,286,VALID,0.468328,
2002-08-26, 12:24:00,VALID,917.998,VALID,0,VALID,72.4281,VALID,275.955,VALID,25.9693,VALID,352,VALID,0.855859,
2002-08-26, 12:25:00,VALID,917.993,VALID,0,VALID,71.6892,VALID,301.138,VALID,26.1054,VALID,70,VALID,0.995477,
2002-08-26, 12:26:00,VALID,917.984,VALID,0,VALID,71.9499,VALID,315.198,VALID,26.1022,VALID,135,VALID,0.792969,
2002-08-26, 12:27:01,VALID,917.976,VALID,0,VALID,71.8787,VALID,321.549,VALID,26.0353,VALID,244,VALID,0.587416,
2002-08-26, 12:28:00,VALID,917.969,VALID,0,VALID,71.3777,VALID,331.924,VALID,25.935,VALID,228,VALID,0.934966,
2002-08-26, 12:29:01,VALID,917.927,VALID,0,VALID,71.5468,VALID,502.565,VALID,25.8183,VALID,293,VALID,0.708333,
2002-08-26, 12:30:01,VALID,917.917,VALID,0,VALID,73.0766,VALID,611.989,VALID,25.8998,VALID,358,VALID,0.825521,
2002-08-26, 12:31:00,VALID,917.89,VALID,0,VALID,71.5532,VALID,382.969,VALID,25.9774,VALID,265,VALID,1.3372,
2002-08-26, 12:32:00,VALID,917.851,VALID,0,VALID,72.7396,VALID,388.657,VALID,25.7255,VALID,41,VALID,1.36328,
2002-08-26, 12:33:00,VALID,917.778,VALID,0,VALID,73.7798,VALID,395.467,VALID,25.7287,VALID,41,VALID,0.952508,
2002-08-26, 12:34:00,VALID,917.789,VALID,0,VALID,73.659,VALID,383.597,VALID,25.8422,VALID,18,VALID,1.40469,
2002-08-26, 12:35:00,VALID,917.778,VALID,0,VALID,73.5305,VALID,385.991,VALID,25.8914,VALID,17,VALID,1.64947,
2002-08-26, 12:36:00,VALID,917.754,VALID,0,VALID,72.4929,VALID,402.412,VALID,25.7937,VALID,4,VALID,1.94819,
2002-08-26, 12:37:00,VALID,917.712,VALID,0,VALID,74.0023,VALID,415.334,VALID,25.6805,VALID,252,VALID,1.20418,
2002-08-26, 12:38:00,VALID,917.742,VALID,0,VALID,73.2025,VALID,426.575,VALID,25.7158,VALID,212,VALID,1.48763,
2002-08-26, 12:39:00,VALID,917.756,VALID,0,VALID,72.7994,VALID,441.06,VALID,25.7484,VALID,225,VALID,1.36741,
2002-08-26, 12:40:00,VALID,917.774,VALID,0,VALID,73.1223,VALID,456.343,VALID,25.7319,VALID,243,VALID,0.85625,
2002-08-26, 12:41:00,VALID,917.773,VALID,0,VALID,73.7581,VALID,810.75,VALID,25.8674,VALID,251,VALID,0.346354,
2002-08-26, 12:42:01,VALID,917.784,VALID,0,VALID,73.631,VALID,857.906,VALID,26.1979,VALID,252,VALID,0.657278,
2002-08-26, 12:43:01,VALID,917.814,VALID,0,VALID,67.699,VALID,435.27,VALID,26.2432,VALID,236,VALID,1.8822,